GW3516 Weather Reports


time (UTC)temp
C
wind
direction
speed
KPH
gust
KPH
rain 1hr
cm
rain 24hr
cm
rain mn
cm
humidity
%
barometer
mb
20260906232038 27 248 16.1 22.5 0.00 0.00 0.00 7 1017.5
20260906231017 27 203 8.0 17.7 0.00 0.00 0.00 6 1017.7
20260906230037 28 270 17.7 24.1 0.00 0.00 0.00 7 1017.9
20260906225037 28 180 14.5 22.5 0.00 0.00 0.00 4 1018.2
20260906224038 28 158 8.0 17.7 0.00 0.00 0.00 7 1017.9
20260906223058 28 270 20.9 32.2 0.00 0.00 0.00 7 1017.9
20260906222056 28 270 19.3 29.0 0.00 0.00 0.00 6 1018.2
20260906221017 28 248 12.9 20.9 0.00 0.00 0.00 7 1018.4
20260906220017 28 225 17.7 33.8 0.00 0.00 0.00 7 1018.7
20260906215017 28 293 17.7 29.0 0.00 0.00 0.00 8 1018.6
20260906214037 28 248 16.1 24.1 0.00 0.00 0.00 8 1018.9
20260906213037 28 225 19.3 32.2 0.00 0.00 0.00 8 1018.9
20260906212137 28 248 20.9 30.6 0.00 0.00 0.00 9 1019.2
20260906211017 28 248 24.1 37.0 0.00 0.00 0.00 8 1018.9
20260906210057 28 225 17.7 27.4 0.00 0.00 0.00 8 1018.4
20260906205017 28 248 16.1 32.2 0.00 0.00 0.00 8 1018.5
20260906204137 28 248 12.9 32.2 0.00 0.00 0.00 8 1018.7
20260906203017 28 203 11.3 20.9 0.00 0.00 0.00 8 1018.5
20260906202017 27 293 19.3 38.6 0.00 0.00 0.00 9 1018.8
20260906201037 27 248 17.7 35.4 0.00 0.00 0.00 8 1018.7
20260906200017 27 270 16.1 25.7 0.00 0.00 0.00 8 1018.8
20260906195017 27 270 22.5 33.8 0.00 0.00 0.00 9 1019.0
20260906194137 28 248 19.3 35.4 0.00 0.00 0.00 8 1019.5
20260906193037 28 248 20.9 32.2 0.00 0.00 0.00 6 1019.4
20260906192017 28 225 19.3 37.0 0.00 0.00 0.00 5 1019.6
20260906191036 28 225 20.9 33.8 0.00 0.00 0.00 6 1020.1
20260906190057 28 225 17.7 30.6 0.00 0.00 0.00 7 1020.2
20260906185057 27 225 14.5 20.9 0.00 0.00 0.00 8 1020.2
20260906184017 27 203 14.5 24.1 0.00 0.00 0.00 7 1020.2
20260906183017 27 225 16.1 24.1 0.00 0.00 0.00 8 1020.4
20260906182037 27 180 16.1 29.0 0.00 0.00 0.00 5 1020.4
20260906181017 27 270 12.9 25.7 0.00 0.00 0.00 9 1020.8
20260906180037 27 248 16.1 27.4 0.00 0.00 0.00 9 1021.1
20260906175057 26 203 12.9 22.5 0.00 0.00 0.00 9 1021.3
20260906174057 26 225 11.3 20.9 0.00 0.00 0.00 9 1021.0
20260906173017 26 203 12.9 17.7 0.00 0.00 0.00 11 1020.8
20260906172017 26 203 8.0 17.7 0.00 0.00 0.00 13 1020.8
20260906171037 25 135 4.8 14.5 0.00 0.00 0.00 12 1021.0
20260906170037 25 135 4.8 12.9 0.00 0.00 0.00 13 1021.0
20260906165117 24 158 6.4 14.5 0.00 0.00 0.00 14 1021.2
20260906164017 23 68 1.6 6.4 0.00 0.00 0.00 16 1021.0
20260906163017 22 90 3.2 9.7 0.00 0.00 0.00 18 1021.3
20260906162037 22 90 4.8 9.7 0.00 0.00 0.00 18 1020.9
20260906161037 21 90 8.0 11.3 0.00 0.00 0.00 25 1020.9
20260906160057 20 90 6.4 11.3 0.00 0.00 0.00 28 1021.1
20260906155057 18 113 4.8 11.3 0.00 0.00 0.00 31 1020.7
20260906154017 17 113 3.2 6.4 0.00 0.00 0.00 33 1020.5
20260906153017 16 113 4.8 8.0 0.00 0.00 0.00 37 1020.8
20260906152037 15 0.0 0.0 0.00 0.00 0.00 40 1020.4
20260906151017 14 113 1.6 4.8 0.00 0.00 0.00 42 1020.3
20260906150117 13 113 3.2 6.4 0.00 0.00 0.00 45 1020.0
20260906145017 12 0.0 0.0 0.00 0.00 0.00 50 1019.7
20260906144037 11 113 1.6 4.8 0.00 0.00 0.00 51 1020.2
20260906143036 10 0.0 0.0 0.00 0.00 0.00 55 1020.2
20260906142016 9 113 1.6 4.8 0.00 0.00 0.00 56 1020.6
20260906141036 8 113 1.6 3.2 0.00 0.00 0.00 59 1020.4
20260906140017 7 113 3.2 8.0 0.00 0.00 0.00 62 1020.9
20260906135017 6 135 3.2 6.4 0.00 0.00 0.00 64 1021.0
20260906134057 5 135 3.2 4.8 0.00 0.00 0.00 64 1020.8
20260906133057 5 0.0 0.0 0.00 0.00 0.00 63 1020.6
20260906132017 5 0.0 1.6 0.00 0.00 0.00 62 1020.4
20260906131057 5 0.0 0.0 0.00 0.00 0.00 61 1020.2
20260906130057 5 0.0 0.0 0.00 0.00 0.00 60 1020.7
20260906125016 5 0.0 0.0 0.00 0.00 0.00 60 1020.6
20260906124016 5 0.0 0.0 0.00 0.00 0.00 59 1020.4
20260906123017 5 0.0 0.0 0.00 0.00 0.00 59 1020.8
20260906122036 6 158 4.8 8.0 0.00 0.00 0.00 58 1020.6
20260906121118 6 225 1.6 6.4 0.00 0.00 0.00 56 1021.0
20260906120138 7 0.0 0.0 0.00 0.00 0.00 55 1021.5
20260906115018 7 0.0 0.0 0.00 0.00 0.00 53 1021.5
20260906114018 8 225 1.6 4.8 0.00 0.00 0.00 51 1021.8
20260906113018 9 0.0 3.2 0.00 0.00 0.00 47 1021.8
20260906112018 10 225 1.6 4.8 0.00 0.00 0.00 48 1021.9
20260906111018 10 225 1.6 4.8 0.00 0.00 0.00 48 1021.8
20260906110038 10 90 3.2 12.9 0.00 0.00 0.00 48 1021.9
20260906105016 10 113 9.7 22.5 0.00 0.00 0.00 48 1021.2
20260906104018 10 45 8.0 12.9 0.00 0.00 0.00 48 1021.2
20260906103016 10 45 6.4 16.1 0.00 0.00 0.00 46 1021.0
20260906102018 10 113 8.0 17.7 0.00 0.00 0.00 48 1021.1
20260906101136 11 135 9.7 19.3 0.00 0.00 0.00 46 1021.0
20260906100118 11 90 8.0 16.1 0.00 0.00 0.00 45 1021.0
20260906095016 11 113 9.7 20.9 0.00 0.00 0.00 45 1020.9
20260906094018 10 90 9.7 16.1 0.00 0.00 0.00 47 1020.4
20260906093018 10 90 6.4 12.9 0.00 0.00 0.00 50 1020.5
20260906092116 10 90 9.7 14.5 0.00 0.00 0.00 49 1020.5
20260906091038 10 90 11.3 16.1 0.00 0.00 0.00 51 1020.5
20260906090018 9 90 11.3 20.9 0.00 0.00 0.00 55 1020.1
20260906085016 8 135 9.7 12.9 0.00 0.00 0.00 55 1020.2
20260906084058 8 68 3.2 8.0 0.00 0.00 0.00 55 1019.7
20260906083016 8 90 12.9 16.1 0.00 0.00 0.00 55 1019.7
20260906082018 8 90 4.8 12.9 0.00 0.00 0.00 55 1019.8
20260906081156 9 90 4.8 11.3 0.00 0.00 0.00 54 1020.0
20260906080016 9 90 3.2 6.4 0.00 0.00 0.00 54 1020.1
20260906075018 10 90 4.8 9.7 0.00 0.00 0.00 53 1019.9
20260906074018 10 90 6.4 14.5 0.00 0.00 0.00 54 1020.4
20260906073118 10 68 6.4 12.9 0.00 0.00 0.00 54 1020.1
20260906072018 10 68 1.6 6.4 0.00 0.00 0.00 53 1020.3
20260906071018 10 90 6.4 11.3 0.00 0.00 0.00 52 1020.4
20260906070158 11 90 8.0 12.9 0.00 0.00 0.00 51 1020.8
20260906065018 11 90 11.3 17.7 0.00 0.00 0.00 52 1020.6
20260906064016 11 90 9.7 19.3 0.00 0.00 0.00 52 1020.6
20260906063016 10 90 8.0 12.9 0.00 0.00 0.00 53 1020.4
20260906062018 10 68 4.8 11.3 0.00 0.00 0.00 53 1020.3
20260906061038 10 90 6.4 12.9 0.00 0.00 0.00 53 1020.6
20260906060018 10 0.0 3.2 0.00 0.00 0.00 52 1020.2
20260906055018 11 0.0 3.2 0.00 0.00 0.00 52 1020.4
20260906054018 10 45 9.7 12.9 0.00 0.00 0.00 54 1020.4
20260906053018 10 113 6.4 14.5 0.00 0.00 0.00 54 1020.0
20260906052017 10 225 1.6 6.4 0.00 0.00 0.00 52 1019.2
20260906051015 10 0.0 0.0 0.00 0.00 0.00 50 1019.4
20260906050036 10 0.0 0.0 0.00 0.00 0.00 50 1019.5
20260906045018 11 0.0 0.0 0.00 0.00 0.00 49 1019.6
20260906044036 11 0.0 0.0 0.00 0.00 0.00 48 1019.3
20260906043038 11 0.0 3.2 0.00 0.00 0.00 47 1019.3
20260906042016 11 0.0 0.0 0.00 0.00 0.00 47 1019.4
20260906041018 12 0.0 0.0 0.00 0.00 0.00 47 1019.1
20260906040056 12 0.0 0.0 0.00 0.00 0.00 46 1019.0
20260906035138 12 0.0 0.0 0.00 0.00 0.00 45 1019.0
20260906034016 12 0.0 0.0 0.00 0.00 0.00 44 1018.5
20260906033018 13 0.0 0.0 0.00 0.00 0.00 43 1018.4
20260906032117 13 225 1.6 3.2 0.00 0.00 0.00 43 1018.5
20260906031017 14 0.0 0.0 0.00 0.00 0.00 40 1018.3
20260906030018 15 0.0 0.0 0.00 0.00 0.00 38 1018.2
20260906025018 15 225 1.6 4.8 0.00 0.00 0.00 37 1018.2
20260906024017 16 225 1.6 3.2 0.00 0.00 0.00 35 1018.0
20260906023037 18 225 1.6 4.8 0.00 0.00 0.00 32 1018.3
20260906022035 20 0.0 0.0 0.00 0.00 0.00 27 1018.5
20260906021017 21 0.0 0.0 0.00 0.00 0.00 26 1018.6
20260906020138 22 0.0 1.6 0.00 0.00 0.00 21 1018.8
20260906015017 23 0.0 0.0 0.00 0.00 0.00 17 1018.8
20260906014118 24 0.0 0.0 0.00 0.00 0.00 16 1018.8
20260906013017 25 225 4.8 6.4 0.00 0.00 0.00 16 1018.8
20260906012017 25 248 3.2 8.0 0.00 0.00 0.00 16 1018.8
20260906011057 25 225 4.8 6.4 0.00 0.00 0.00 15 1018.6
20260906010057 26 248 4.8 9.7 0.00 0.00 0.00 14 1019.0
20260906005017 26 225 6.4 9.7 0.00 0.00 0.00 14 1019.0
20260906004017 26 225 6.4 12.9 0.00 0.00 0.00 14 1018.8
20260906003037 26 225 9.7 14.5 0.00 0.00 0.00 13 1019.1
20260906002057 26 248 8.0 12.9 0.00 0.00 0.00 13 1019.4
20260906001017 27 248 11.3 17.7 0.00 0.00 0.00 12 1019.7
20260906000037 27 203 3.2 8.0 0.00 0.00 0.00 13 1019.9
20260905235017 27 248 6.4 16.1 0.00 0.00 0.00 12 1019.9
20260905234017 27 225 11.3 17.7 0.00 0.00 0.00 12 1019.9
20260905233057 27 248 8.0 14.5 0.00 0.00 0.00 13 1020.4